Weather History for Statesboro, GA

Change the Weather History Date:

Thursday, July 11, 2013

  Actual Average (KSAV) Record (KSAV)
Temperature  
Mean Temperature 81 °F 83 °F  
Max Temperature 90 °F 93 °F 103 °F (1980)
Min Temperature 72 °F 73 °F 64 °F (1898)
Degree Days  
Heating Degree Days 0 0  
Month to date heating degree days 0  
Since 1 June heating degree days 0  
Since 1 July heating degree days 0  
Cooling Degree Days 16 18  
Month to date cooling degree days 190  
Year to date cooling degree days 1039  
Since 1 June cooling degree days 636  
Growing Degree Days 31 (Base 50)    
Moisture  
Dew Point 70 °F    
Average Humidity 74    
Maximum Humidity 99    
Minimum Humidity 43    
Precipitation  
Precipitation 0.00 in 0.18 in 2.67 in (1959)
Month to date precipitation 1.87  
Year to date precipitation 24.08  
Sea Level Pressure  
Sea Level Pressure 29.96 in    
Wind  
Wind Speed 3 mph (SW)    
Max Wind Speed 16 mph    
Max Gust Speed 20 mph    
Visibility 10 miles    
Events Rain , Thunderstorm    
T = Trace of Precipitation, MM = Missing Value Source: NWS Daily Summary

Daily Weather History Graph

Daily Weather History Graph

Search for Another Location

Airport:

Trip Planner

Search our weather history database for the weather conditions in past years. The results will help you decide how hot, cold, wet, or windy it might be!

Date:

Astronomy

Jul. 11, 2013 Rise Set
Actual Time 6:28 AM EDT 8:36 PM EDT
Civil Twilight 6:00 AM EDT 9:04 PM EDT
Nautical Twilight 5:26 AM EDT 9:38 PM EDT
Astronomical Twilight 4:49 AM EDT 10:15 PM EDT
Moon 9:32 AM EDT (7/11) 10:31 PM EDT (7/11)
Length of Visible Light 15h 04m
Length of Day
14h 08m
Waxing Crescent, 10% of the Moon is Illuminated
Jul 11
Waxing Crescent
Jul 15
First Quarter
Jul 22
Full
Jul 29
Last Quarter
Aug 6
New

Hourly Weather History & Observations

Time (EDT) Temp. Heat Index Dew Point Humidity Pressure Visibility Wind Dir Wind Speed Gust Speed Precip Events Conditions
12:15 AM 74.1 °F - 73.8 °F 99% 30.01 in 10.0 mi Calm Calm - N/A   Clear
12:35 AM 74.3 °F - 73.8 °F 98% 30.02 in 10.0 mi South 3.5 mph - N/A   Scattered Clouds
12:55 AM 75.2 °F - 73.6 °F 95% 30.01 in 10.0 mi SSW 3.5 mph - N/A   Mostly Cloudy
1:15 AM 75.2 °F - 73.4 °F 94% 30.01 in 10.0 mi South 3.5 mph - N/A   Overcast
1:35 AM 74.7 °F - 73.0 °F 95% 30.01 in 10.0 mi SSW 3.5 mph - N/A   Scattered Clouds
1:55 AM 74.5 °F - 72.9 °F 95% 30.00 in 10.0 mi South 4.6 mph - N/A   Scattered Clouds
2:15 AM 74.5 °F - 72.5 °F 94% 30.00 in 10.0 mi SSW 5.8 mph - N/A   Scattered Clouds
2:35 AM 74.3 °F - 72.3 °F 94% 30.00 in 10.0 mi Calm Calm - N/A   Clear
2:55 AM 74.3 °F - 72.5 °F 94% 30.00 in 10.0 mi South 4.6 mph - N/A   Clear
3:15 AM 74.3 °F - 72.7 °F 95% 30.00 in 10.0 mi SSE 4.6 mph - N/A   Clear
3:35 AM 73.2 °F - 72.5 °F 98% 30.00 in 10.0 mi SSW 3.5 mph - N/A   Clear
3:55 AM 73.4 °F - 72.5 °F 97% 29.99 in 10.0 mi Calm Calm - N/A   Clear
4:15 AM 72.7 °F - 72.3 °F 99% 29.99 in 10.0 mi Calm Calm - N/A   Clear
4:35 AM 72.9 °F - 72.5 °F 99% 29.98 in 10.0 mi Calm Calm - N/A   Clear
4:55 AM 72.7 °F - 72.5 °F 99% 29.99 in 10.0 mi Calm Calm - N/A   Clear
5:15 AM 72.3 °F - 71.8 °F 98% 29.99 in 10.0 mi Calm Calm - N/A   Clear
5:35 AM 72.5 °F - 72.1 °F 99% 29.99 in 10.0 mi Calm Calm - N/A   Clear
5:55 AM 72.5 °F - 72.3 °F 99% 29.99 in 10.0 mi SSW 3.5 mph - N/A   Clear
6:15 AM 72.5 °F - 72.3 °F 99% 30.00 in 10.0 mi Calm Calm - N/A   Clear
6:35 AM 72.5 °F - 72.3 °F 99% 30.00 in 10.0 mi WSW 3.5 mph - N/A   Clear
6:55 AM 72.5 °F - 72.1 °F 99% 30.00 in 10.0 mi Calm Calm - N/A   Clear
7:15 AM 73.0 °F - 72.5 °F 98% 29.99 in 10.0 mi Calm Calm - N/A   Clear
7:35 AM 73.8 °F - 72.9 °F 97% 29.99 in 10.0 mi Calm Calm - N/A   Clear
7:55 AM 74.5 °F - 72.7 °F 94% 30.00 in 10.0 mi WSW 3.5 mph - N/A   Clear
8:15 AM 75.9 °F - 72.9 °F 90% 29.99 in 10.0 mi WSW 4.6 mph - N/A   Clear
8:35 AM 76.5 °F - 72.5 °F 87% 30.00 in 10.0 mi Calm Calm - N/A   Clear
8:55 AM 77.9 °F - 70.7 °F 78% 30.00 in 10.0 mi Calm Calm - N/A   Clear
9:15 AM 79.0 °F - 68.0 °F 69% 30.01 in 10.0 mi WSW 4.6 mph - N/A   Clear
9:35 AM 80.1 °F 82.6 °F 67.6 °F 66% 30.00 in 10.0 mi Calm Calm - N/A   Clear
9:55 AM 80.4 °F 82.7 °F 66.7 °F 63% 30.00 in 10.0 mi West 5.8 mph - N/A   Clear
10:15 AM 81.5 °F 84.2 °F 67.6 °F 63% 30.00 in 10.0 mi Calm Calm - N/A   Clear
10:35 AM 82.2 °F 85.1 °F 68.0 °F 62% 29.99 in 10.0 mi SSW 4.6 mph - N/A   Clear
10:55 AM 83.7 °F 86.7 °F 67.8 °F 59% 29.99 in 10.0 mi Calm Calm - N/A   Scattered Clouds
11:15 AM 83.8 °F 87.0 °F 68.0 °F 59% 29.99 in 10.0 mi West 4.6 mph - N/A   Clear
11:35 AM 84.2 °F 86.8 °F 66.7 °F 56% 29.99 in 10.0 mi West 5.8 mph - N/A   Scattered Clouds
11:55 AM 84.9 °F 87.9 °F 67.5 °F 56% 29.98 in 10.0 mi West 5.8 mph - N/A   Mostly Cloudy
12:15 PM 84.9 °F 87.6 °F 67.1 °F 55% 29.98 in 10.0 mi Calm Calm - N/A   Scattered Clouds
12:35 PM 86.2 °F 89.1 °F 67.3 °F 53% 29.97 in 10.0 mi SSW 5.8 mph - N/A   Mostly Cloudy
12:55 PM 86.2 °F 88.8 °F 66.9 °F 52% 29.97 in 10.0 mi SSW 6.9 mph - N/A   Scattered Clouds
1:15 PM 87.1 °F 89.5 °F 66.6 °F 50% 29.97 in 10.0 mi SW 4.6 mph - N/A   Mostly Cloudy
1:35 PM 86.9 °F 89.9 °F 67.3 °F 52% 29.96 in 10.0 mi SSW 5.8 mph - N/A   Mostly Cloudy
1:55 PM 87.6 °F 90.1 °F 66.2 °F 49% 29.95 in 10.0 mi SSW 5.8 mph - N/A   Mostly Cloudy
2:15 PM 88.5 °F 91.6 °F 67.1 °F 49% 29.95 in 10.0 mi WSW 6.9 mph - N/A   Scattered Clouds
2:35 PM 88.7 °F 91.5 °F 66.7 °F 48% 29.94 in 10.0 mi SW 4.6 mph - N/A   Mostly Cloudy
2:55 PM 88.9 °F 91.0 °F 65.8 °F 46% 29.94 in 10.0 mi SW 6.9 mph - N/A   Scattered Clouds
3:15 PM 88.5 °F 90.8 °F 66.2 °F 47% 29.93 in 10.0 mi South 9.2 mph - N/A   Mostly Cloudy
3:35 PM 89.1 °F 91.0 °F 65.1 °F 45% 29.92 in 10.0 mi South 6.9 mph - N/A   Mostly Cloudy
3:55 PM 88.5 °F 90.8 °F 65.7 °F 47% 29.91 in 10.0 mi SSW 8.1 mph - N/A   Scattered Clouds
4:15 PM 89.8 °F 92.5 °F 66.6 °F 46% 29.90 in 10.0 mi WSW 8.1 mph - N/A   Scattered Clouds
4:35 PM 90.0 °F 92.8 °F 66.4 °F 46% 29.89 in 10.0 mi SW 6.9 mph - N/A   Clear
4:55 PM 90.3 °F 92.2 °F 65.1 °F 43% 29.88 in 10.0 mi SSW 6.9 mph - N/A   Scattered Clouds
5:15 PM 89.6 °F 91.1 °F 64.6 °F 43% 29.87 in 10.0 mi South 6.9 mph - N/A   Scattered Clouds
5:35 PM 90.1 °F 92.0 °F 64.8 °F 43% 29.87 in 10.0 mi SW 5.8 mph - N/A   Scattered Clouds
5:55 PM 90.1 °F 92.3 °F 65.3 °F 44% 29.87 in 10.0 mi SW 8.1 mph - N/A   Scattered Clouds
6:15 PM 90.1 °F 92.7 °F 66.4 °F 45% 29.87 in 10.0 mi WSW 6.9 mph - N/A   Mostly Cloudy
6:35 PM 87.6 °F 90.4 °F 66.7 °F 50% 29.87 in 10.0 mi SSW 4.6 mph - N/A   Scattered Clouds
6:55 PM 88.2 °F 90.9 °F 66.6 °F 49% 29.87 in 10.0 mi Calm Calm - N/A   Clear
7:15 PM 87.1 °F 89.2 °F 65.7 °F 49% 29.87 in 10.0 mi WSW 5.8 mph - N/A   Scattered Clouds
7:35 PM 85.6 °F 88.5 °F 67.5 °F 54% 29.87 in 10.0 mi Calm Calm - N/A   Clear
7:55 PM 84.6 °F 87.6 °F 68.0 °F 57% 29.88 in 10.0 mi South 16.1 mph 19.6 mph N/A   Mostly Cloudy
8:15 PM 81.7 °F 84.9 °F 68.9 °F 65% 29.88 in 10.0 mi South 10.4 mph - N/A   Mostly Cloudy
8:35 PM 80.4 °F 83.2 °F 68.5 °F 67% 29.88 in 10.0 mi SSE 8.1 mph - N/A Thunderstorm Thunderstorm
8:55 PM 78.4 °F - 69.8 °F 75% 29.89 in 7.0 mi South 16.1 mph - N/A Rain , Thunderstorm Heavy Thunderstorms and Rain
9:15 PM 76.5 °F - 75.0 °F 95% 29.90 in 10.0 mi Calm Calm - N/A Rain Light Rain
9:35 PM 77.4 °F - 74.7 °F 91% 29.91 in 10.0 mi SW 3.5 mph - N/A Thunderstorm Thunderstorm
9:55 PM 75.7 °F - 72.9 °F 91% 29.93 in 10.0 mi SW 8.1 mph - N/A Thunderstorm Overcast
10:15 PM 75.2 °F - 72.7 °F 92% 29.93 in 10.0 mi SW 6.9 mph - N/A Thunderstorm Thunderstorm
10:35 PM 75.4 °F - 72.7 °F 91% 29.93 in 10.0 mi West 3.5 mph - N/A   Mostly Cloudy
10:55 PM 74.8 °F - 73.0 °F 94% 29.92 in 10.0 mi Calm Calm - N/A Rain Light Rain
11:15 PM 74.5 °F - 73.8 °F 98% 29.93 in 10.0 mi South 3.5 mph - N/A Rain Light Rain
11:35 PM 74.3 °F - 73.6 °F 98% 29.94 in 7.0 mi Calm Calm - N/A Rain Rain
11:55 PM 74.3 °F - 73.9 °F 99% 29.93 in 5.0 mi Calm Calm - N/A Rain Rain